Weather History for Rafha, Saudi Arabia

Change the Weather History Date:

Tuesday, November 13, 2012

  Actual Average Record
Temperature  
Mean Temperature 63 °F -  
Max Temperature 73 °F 68 °F 84 °F (2010)
Min Temperature 53 °F 48 °F 41 °F (1996)
Degree Days  
Heating Degree Days 2    
Growing Degree Days 13 (Base 50)    
Moisture  
Dew Point 46 °F    
Average Humidity 55    
Maximum Humidity 82    
Minimum Humidity 26    
Precipitation  
Precipitation 0.00 in - - ()
Sea Level Pressure  
Sea Level Pressure 29.92 in    
Wind  
Wind Speed 5 mph ()    
Max Wind Speed 13 mph    
Max Gust Speed -    
Visibility 6.1 miles    
Events      
Averages and records for this station are not official NWS values.
T = Trace of Precipitation, MM = Missing Value Source: Averaged Metar Reports

Daily Weather History Graph

Daily Weather History Graph

Search for Another Location

Airport:

Trip Planner

Search our weather history database for the weather conditions in past years. The results will help you decide how hot, cold, wet, or windy it might be!

Date:

Astronomy

Nov. 13, 2012 Rise Set
Actual Time 6:28 AM AST 5:11 PM AST
Civil Twilight 6:03 AM AST 5:36 PM AST
Nautical Twilight 5:35 AM AST 6:05 PM AST
Astronomical Twilight 5:06 AM AST 6:33 PM AST
Moon 5:40 AM AST (11/13) 4:46 PM AST (11/13)
Length of Visible Light 11h 32m
Length of Day
10h 42m
Waning Crescent, 0% of the Moon is Illuminated
Nov 13
Waning Crescent
Nov 14
New
Nov 20
First Quarter
Nov 28
Full
Dec 6
Last Quarter

Hourly Weather History & Observations

Time (AST) Temp. Dew Point Humidity Pressure Visibility Wind Dir Wind Speed Gust Speed Precip Events Conditions
12:00 AM 56 °F 50 °F 74% 29.89 in 6 mi SW 3.5 mph - -  
12:00 AM 55.4 °F 50.0 °F 82% 29.92 in - SW 3.5 mph - N/A   Clear
1:00 AM 57.2 °F 50.0 °F 77% 29.92 in - WSW 4.6 mph - N/A   Clear
2:00 AM 55.4 °F 50.0 °F 82% 29.92 in - WSW 4.6 mph - N/A   Clear
3:00 AM 56 °F 48 °F 67% 29.88 in 6 mi WSW 2.3 mph - -  
3:00 AM 55.4 °F 48.2 °F 77% 29.92 in - WSW 2.3 mph - N/A   Clear
4:00 AM 53.6 °F 48.2 °F 82% 29.92 in - SE 6.9 mph - N/A   Clear
5:00 AM 55.4 °F 48.2 °F 77% 29.92 in - SW 6.9 mph - N/A   Clear
6:00 AM 54 °F 48 °F 74% 29.90 in 6 mi SW 8.1 mph - -  
6:00 AM 53.6 °F 48.2 °F 82% 29.92 in - SW 8.1 mph - N/A   Clear
7:00 AM 53.6 °F 48.2 °F 82% 29.92 in - Calm Calm - N/A   Clear
8:00 AM 55.4 °F 48.2 °F 77% 29.95 in - SSE 4.6 mph - N/A   Clear
9:00 AM 63 °F 50 °F 53% 29.94 in 6 mi SW 6.9 mph - -  
9:00 AM 62.6 °F 50.0 °F 63% 29.95 in - SW 6.9 mph - N/A   Clear
10:00 AM 66.2 °F 48.2 °F 52% 29.95 in - WSW 8.1 mph - N/A   Clear
11:00 AM 69.8 °F 46.4 °F 43% 29.95 in - WSW 8.1 mph - N/A   Clear
12:00 PM 70 °F 46 °F 32% 29.91 in 6 mi NW 12.7 mph - -  
12:00 PM 69.8 °F 46.4 °F 43% 29.95 in - NW 12.7 mph - N/A   Clear
1:00 PM 69.8 °F 44.6 °F 40% 29.92 in - NNW 8.1 mph - N/A   Clear
2:00 PM 71.6 °F 44.6 °F 38% 29.89 in - NW 6.9 mph - N/A   Clear
3:00 PM 72 °F 45 °F 26% 29.85 in 6 mi West 8.1 mph - -   Partly Cloudy
3:00 PM 73.4 °F 44.6 °F 36% 29.89 in 6.2 mi West 8.1 mph - N/A   Scattered Clouds
4:00 PM 71.6 °F 44.6 °F 38% 29.89 in 6.2 mi West 9.2 mph - N/A   Scattered Clouds
5:00 PM 69.8 °F 42.8 °F 38% 29.89 in - West 9.2 mph - N/A   Clear
6:00 PM 65 °F 41 °F 30% 29.91 in 6 mi North 4.6 mph - -   Partly Cloudy
6:00 PM 66.2 °F 41.0 °F 40% 29.92 in 6.2 mi North 4.6 mph - N/A   Scattered Clouds
7:00 PM 66.2 °F 41.0 °F 40% 29.92 in 6.2 mi North 3.5 mph - N/A   Scattered Clouds
8:00 PM 64.4 °F 41.0 °F 42% 29.95 in 6.2 mi North 2.3 mph - N/A   Scattered Clouds
9:00 PM 64 °F 41 °F 31% 29.92 in 6 mi North 2.3 mph - -   Partly Cloudy
9:00 PM 64.4 °F 41.0 °F 42% 29.95 in 6.2 mi North 2.3 mph - N/A   Scattered Clouds
10:00 PM 62.6 °F 41.0 °F 45% 29.95 in 6.2 mi North 2.3 mph - N/A   Scattered Clouds